Duchifat 3
1 44854U 19089C   25135.42928543  .00037343  00000-0  78343-3 0  9993
2 44854  36.9422 154.8527 0001013 164.5992 195.4795 15.44452592299120
TO-108
1 44881U 19093C   25135.84051355  .00000929  00000-0  11351-3 0  9998
2 44881  97.7927 212.0073 0012702 317.3019  42.7208 14.85550480292409
FloripaSat 1
1 44885U 19093G   25135.83853277  .00005131  00000-0  43699-3 0  9994
2 44885  97.8142 223.3935 0009373 285.8648  74.1541 14.98196794293040
RS-44
1 44909U 19096E   25135.38013584  .00000030  00000-0  77309-4 0  9992
2 44909  82.5220 244.0183 0217224 354.8048   5.0798 12.79740402251462
UPMSat 2
1 46276U 20061E   25135.78241484  .00058487  00000-0  58314-3 0  9994
2 46276  97.2446 209.3905 0001514 160.1298 200.0021 15.65488949261581
SALSAT
1 46495U 20068K   25134.91930967  .00007051  00000-0  30827-3 0  9999
2 46495  97.8595 111.7726 0009578 247.8323 112.1896 15.22385086254623
CubeSX-Sirius-HSE
1 47951U 21022V   25135.86618396  .00369097  00000-0  13772-2 0  9992
2 47951  97.4143  48.0942 0006670  98.1292 262.0736 15.87044385229928
CubeSX-HSE
1 47952U 21022W   25135.87883688  .00331558  00000-0  12187-2 0  9992
2 47952  97.4161  48.3713 0005822  99.9272 260.2656 15.87446124229943
GRBAlpha
1 47959U 21022AD  25135.74223838  .00308644  00000-0  12257-2 0  9998
2 47959  97.4152  48.3004 0006177  97.2143 262.9830 15.85898410228742
TUBIN
1 48900U 21059X   25135.82706135  .00043335  00000-0  57002-3 0  9991
2 48900  97.6745 303.0863 0002381 318.1099  41.9973 15.58361271216189
LEDSAT
1 49069U 21073D   25135.78863635  .00058552  00000-0  79085-3 0  9990
2 49069  97.3898 216.3513 0011855 167.3459 192.8096 15.57503122207577
CUTE
1 49263U 21088D   25135.18741759  .00024736  00000-0  50693-3 0  9999
2 49263  97.4516 210.7239 0007109 340.2626  19.8347 15.46039615200501
TeikyoSat 4
1 49396U 21102B   25135.66119255  .00002613  00000-0  17580-3 0  9994
2 49396  97.4113 174.9882 0011720 212.9622 147.0877 15.07532257192791
Z-Sat
1 49399U 21102E   25135.83901352  .00003912  00000-0  21703-3 0  9998
2 49399  97.3815 178.1045 0018172 184.2926 175.8153 15.14193828193236
KOSEN 1
1 49402U 21102H   25135.06418924  .00007466  00000-0  34914-3 0  9992
2 49402  97.3721 180.5779 0016746 162.8161 197.3645 15.19931830193419
HO-113
1 50466U 21131B   25135.82974462  .00000602  00000-0  20196-3 0  9996
2 50466  98.5091 225.3058 0003899 193.3491 166.7595 14.40783809177883
IRIS-A
1 51044U 22002BN  25135.20836794  .00356309  49967-4  11007-2 0  9991
2 51044  97.3232 214.6872 0007158 231.6390 128.4242 15.91673225185858
Foresail-1
1 52766U 22057AL  25135.37686827  .00200011  00000-0  87048-3 0  9999
2 52766  97.6037 284.4622 0003702 277.8680  82.2168 15.84250130165893
SNUGLITE 2
1 52899U 22065F   25135.32445825  .00001174  00000-0  23739-3 0  9997
2 52899  98.1653 277.5499 0007594 183.0761 177.0396 14.63150482152792
IO-117
1 53106U 22080B   25051.21822557 -.00000003  00000-0  00000+0 0  9995
2 53106  70.1434 106.3440 0008542  48.0089 312.1297  6.42557744 61200
UmKA 1 (RS40S)
1 57172U 23091G   25135.84227060  .00006088  00000-0  32797-3 0  9995
2 57172  97.5592 191.3557 0015810  64.2244 296.0617 15.15074535103730
CubeBel-2 (EU11S)
1 57175U 23091K   25135.86891594  .00008943  00000-0  43166-3 0  9993
2 57175  97.5590 192.3826 0013758  73.2811 286.9931 15.18824248103802
VERONIKA
1 58261U 23174F   25135.80966536  .00108578  00000-0  11355-2 0  9994
2 58261  97.4129 220.6213 0006326 157.6657 202.4878 15.64080606 84803
ENSO
1 58470U 23185J   25135.85455814  .00049857  00000-0  78983-3 0  9990
2 58470  97.3745 210.2294 0008922 167.1759 192.9723 15.53220932 81192
EIRSAT-1
1 58472U 23185L   25135.83585482  .00088159  00000-0  97842-3 0  9998
2 58472  97.3710 211.7255 0007686 172.8042 187.3328 15.62613663 81290
SONATE-2
1 59112U 24043Q   25135.33749936  .00016554  00000-0  48972-3 0  9995
2 59112  97.5109 266.0304 0011359 198.7875 161.2950 15.34921759 66468
MO-122
1 60209U 24125G   25135.03114572  .00017506  00000-0  51130-3 0  9992
2 60209  97.2815 346.9493 0018017 225.0146 134.9638 15.35206968 48030
GRBBeta
1 60237U 24128C   25135.57977987  .00003189  00000-0  24907-3 0  9996
2 60237  61.9897 166.7094 0049933  51.7473 308.8095 15.02398506 46448
Curium One
1 60242U 24128H   25135.58956320  .00005569  00000-0  39768-3 0  9996
2 60242  61.9795 165.3211 0049908  47.3722 313.1561 15.04705156 46472
ROBUSTA-3A
1 60243U 24128J   25135.31879294  .00005214  00000-0  37820-3 0  9996
2 60243  61.9867 167.0136 0048462  45.0825 315.4183 15.04275590 46425
CatSat
1 60246U 24125J   25135.51339255  .00009895  00000-0  33554-3 0  9995
2 60246  97.2604 346.9185 0043185 181.2707 178.8431 15.29821860 46151
HYPERVIEW-1G (RS66S)
1 61772U 24199AP  25135.83896684  .00018621  00000-0  55770-3 0  9991
2 61772  97.3562   4.7627 0011791 282.0348  77.9573 15.34497861 73162
AO-123
1 61781U 24199AY  25135.82900580  .00006404  00000-0  23635-3 0  9992
2 61781  97.3575   3.8897 0014126 287.6032  72.3665 15.28024989 73106
ZIMSAT 2
1 61783U 24199BA  25135.83832441  .00032260  00000-0  83493-3 0  9992
2 61783  97.3544   5.2016 0011656 278.3669  81.6255 15.38939407 76349
HADES-R (SO-124)
1 62690U 25009CK  25135.00878211  .00035335  00000-0  13156-2 0  9999
2 62690  97.4096 215.9487 0004586 167.7075 192.4277 15.27382786 18248
HYDRA-T
1 62692U 25009CM  25134.99811003  .00036122  00000-0  13361-2 0  9997
2 62692  97.4095 215.9619 0004450 164.3991 195.7386 15.27595097 18244
JINJUSat 1B
1 63210U 25052A   25134.66388185  .00010887  00000-0  50728-3 0  9995
2 63210  97.4447  29.1234 0006148  65.4152 294.7723 15.20054069  9311
NUSHSAT 1
1 63211U 25052B   25135.18866646  .00013046  00000-0  60397-3 0  9990
2 63211  97.4434  29.6383 0006268  68.1258 292.0643 15.20229223  9394
TEVEL2-4
1 63213U 25052D   25134.67086484  .00010986  00000-0  51349-3 0  9996
2 63213  97.4352  29.0438 0005584  82.5669 277.6201 15.19945551  9314
TEVEL2-5
1 63214U 25052E   25134.93451388  .00012003  00000-0  56075-3 0  9998
2 63214  97.4351  29.3029 0005576  81.6975 278.4892 15.19938235  9354
TEVEL2-6
1 63215U 25052F   25135.26515471  .00011953  00000-0  55897-3 0  9994
2 63215  97.4351  29.6260 0005641  81.6570 278.5305 15.19906548  9407
TEVEL2-1
1 63217U 25052H   25134.68011531  .00010339  00000-0  48705-3 0  9996
2 63217  97.4326  29.0135 0005906  91.7588 268.4323 15.19687797  9311
TEVEL2-2
1 63218U 25052J   25135.60221687  .00011493  00000-0  54067-3 0  9995
2 63218  97.4326  29.9214 0005920  90.0435 270.1478 15.19706289  9452
TEVEL2-3
1 63219U 25052K   25135.60226441  .00011429  00000-0  53776-3 0  9994
2 63219  97.4326  29.9211 0005910  89.9549 270.2363 15.19702795  9454
TEVEL2-8
1 63237U 25052AD  25135.25277487  .00011799  00000-0  57386-3 0  9992
2 63237  97.4393  29.5214 0010328 101.0983 259.1413 15.18512423  9395
TEVEL2-9
1 63238U 25052AE  25135.18830568  .00011700  00000-0  56994-3 0  9996
2 63238  97.4396  29.4560 0010448 101.6820 258.5587 15.18460097  9384
TEVEL2-7
1 63239U 25052AF  25135.18967957  .00011762  00000-0  57349-3 0  9993
2 63239  97.4390  29.4532 0010413 101.8253 258.4149 15.18425054  9389
HYDRA-W
1 63490U 25052BL  25133.66483180  .00024035  00000-0  10565-2 0  9999
2 63490  97.4350  28.0903 0014727 104.5772 255.7098 15.21794504  9161
HADES-ICM
1 63492U 25052BN  25134.65948452  .00023575  00000-0  10456-2 0  9996
2 63492  97.4353  29.0569 0014919 104.8186 255.4704 15.21490887  9315
